Wind_Speed
11 11 12 13 14 15 16 16 17 17 18 18 19 19 20 20 21 22 22 23 24 25 25 26 27 27 27 28 28 28 28 28 28 28 27 26 25 26 26 25 26 26 26
12 13 14 15 16 17 18 18 19 20 21 21 22 22 22 23 23 24 25 25 26 27 28 28 29 29 30 30 30 30 30 30 30 30 30 30 29 28 28 28 28 28 28
14 15 16 17 18 19 19 20 21 22 23 24 24 25 25 25 26 27 28 28 29 29 30 30 30 31 31 32 32 32 33 33 33 32 32 33 32 32 31 31 31 31 31
18 18 18 19 20 20 21 22 23 24 25 26 26 27 27 28 29 29 30 30 31 31 32 32 32 33 34 34 34 35 36 36 36 35 35 35 35 34 34 33 33 33 33
20 21 21 22 22 22 24 25 26 26 27 28 28 29 29 30 30 31 32 33 33 33 34 34 35 36 37 37 38 38 38 39 39 39 39 39 39 38 38 37 37 36 36
23 23 24 24 25 26 27 28 29 28 29 30 30 32 32 32 32 33 34 35 36 36 37 38 39 39 40 40 41 41 42 42 43 43 43 42 42 42 42 41 41 40 39
28 28 28 28 29 30 30 31 31 31 31 32 34 34 34 34 35 36 38 39 39 39 40 41 42 43 44 44 44 44 45 46 46 47 47 46 46 45 45 44 43 43 41
32 32 32 32 33 34 34 35 34 34 34 35 35 36 37 37 38 39 41 42 43 43 44 45 46 46 47 48 48 47 47 48 49 50 50 49 49 49 49 48 47 46 44
35 36 37 36 37 37 38 38 39 39 38 38 39 40 41 41 42 42 43 44 46 47 48 49 49 50 51 52 53 52 52 52 52 53 53 53 52 52 52 52 50 49 47
37 38 38 38 38 39 39 39 40 40 40 40 42 43 43 43 44 45 47 48 49 50 51 52 54 55 56 56 57 57 57 57 57 58 57 56 55 55 54 54 54 53 52
37 38 38 38 38 37 36 38 39 40 41 42 43 44 45 46 47 49 50 52 53 54 56 57 59 60 61 62 62 63 63 63 64 64 63 62 61 60 59 58 57 57 56
36 36 36 36 36 36 37 37 38 40 41 43 44 46 47 49 51 53 54 56 58 60 61 63 64 65 66 67 67 68 68 69 69 69 68 67 66 65 64 63 62 61 59
33 33 33 34 35 36 36 37 39 41 43 45 47 49 51 54 56 57 59 61 63 65 66 68 69 70 71 71 71 72 73 73 73 73 72 71 70 69 68 67 66 64 63
33 33 34 35 36 37 39 41 43 45 47 49 51 53 55 58 60 62 64 66 68 69 71 71 72 73 74 74 74 73 73 73 73 73 72 71 71 70 69 68 67 66 65
34 35 36 37 38 40 42 44 46 48 50 53 55 58 60 62 64 67 69 70 72 73 73 73 73 72 72 71 71 71 71 70 70 70 69 69 69 69 68 66 66 66 64
36 37 39 41 43 44 46 48 50 53 55 57 59 62 64 66 68 69 69 70 70 70 70 69 69 68 67 66 65 65 64 64 64 64 64 63 63 62 62 62 62 62 61
39 40 42 44 46 48 51 53 55 57 60 62 64 65 67 67 67 67 66 65 65 65 64 63 62 61 60 59 58 57 57 56 57 56 56 55 55 55 55 56 57 57 56
40 43 45 47 49 52 54 57 59 61 62 64 65 65 66 65 64 63 62 61 59 57 56 54 53 52 51 50 50 50 49 48 48 47 48 48 48 48 48 49 50 52 52
44 46 48 50 53 55 57 58 60 61 61 61 61 61 60 59 58 57 56 54 51 49 47 46 45 44 43 42 42 41 41 40 40 40 41 41 42 43 44 44 44 45 46
48 50 51 53 54 56 57 58 58 58 58 57 56 55 53 52 51 49 47 45 42 40 39 37 36 35 35 34 33 33 33 32 33 33 33 34 35 35 36 37 38 39 40
50 52 53 54 55 55 56 55 55 54 52 50 49 48 47 45 43 41 38 36 34 32 31 30 29 29 28 28 27 27 26 26 26 26 26 27 27 29 30 30 32 33 35
51 52 52 52 53 52 52 51 49 47 45 44 43 41 41 39 36 34 31 29 28 27 26 26 25 26 26 25 24 23 22 22 22 22 22 21 22 22 23 24 26 28 29
50 50 50 49 48 48 46 45 43 41 40 39 37 36 35 32 30 28 26 25 24 24 23 24 24 23 23 22 21 21 21 20 19 19 19 18 18 18 18 19 20 22 23
49 47 46 45 44 43 42 40 39 37 36 34 33 31 29 27 25 24 22 21 21 21 21 21 21 21 20 19 19 19 18 17 17 16 15 15 14 14 15 15 15 16 18
44 43 42 41 40 39 38 36 34 33 31 29 28 26 25 23 22 21 20 19 19 19 19 19 19 20 19 18 17 16 15 15 15 14 14 13 12 11 11 12 12 14 16
40 39 38 37 37 36 34 32 30 29 27 25 24 23 21 21 20 19 18 18 18 18 18 19 19 19 18 17 16 15 14 14 13 13 13 12 11 10 10 10 11 13 15
Wind_Direction
239 245 248 250 250 250 252 254 256 260 263 266 269 272 276 279 282 285 287 289 290 291 291 291 292 292 291 290 290 290 290 290 289 290 290 289 288 287 286 285 285 284 283
252 254 256 257 257 257 258 260 262 265 267 270 273 275 278 280 282 284 286 287 287 288 289 289 290 290 290 290 290 289 288 287 286 286 287 287 286 285 285 285 283 282 281
261 262 263 263 262 262 263 265 267 269 271 273 275 277 278 280 282 283 285 286 286 287 287 288 288 288 288 287 287 287 286 285 284 284 284 284 285 285 284 283 282 281 280
264 263 265 267 267 268 269 270 270 271 273 275 276 278 280 281 282 283 284 285 285 286 286 286 286 286 286 285 284 284 284 283 282 282 282 282 283 283 283 282 281 281 280
268 269 270 270 270 272 272 273 274 275 276 276 276 278 279 280 282 284 285 285 285 285 285 285 285 285 285 283 283 283 282 282 282 282 282 282 282 282 281 281 280 280 279
272 273 273 275 275 277 276 275 274 274 276 278 278 279 279 280 282 283 284 285 286 286 285 284 285 285 284 283 282 282 281 281 280 280 280 281 281 281 281 280 279 278 278
276 275 276 275 276 276 276 275 273 274 277 278 278 280 281 281 282 285 286 286 287 287 286 285 285 284 284 283 282 280 280 281 281 280 280 280 280 279 279 279 278 278 278
276 276 276 277 277 278 279 278 275 276 277 279 280 282 283 284 285 287 288 287 287 287 287 287 286 285 285 284 283 282 280 280 280 280 280 279 279 278 278 278 277 277 277
279 279 279 278 276 277 278 278 276 276 278 280 282 284 285 286 288 288 288 288 288 288 288 288 287 286 285 284 284 283 281 281 279 278 277 277 277 277 277 277 276 276 275
281 281 279 279 279 278 278 280 281 282 282 284 285 287 288 288 289 289 289 289 289 289 288 288 287 286 285 285 284 283 282 280 279 278 278 276 275 274 274 275 275 275 275
284 281 280 281 282 282 281 283 284 285 285 287 288 290 290 290 290 290 290 289 289 289 288 287 287 286 285 285 284 283 282 280 279 278 277 276 275 274 273 273 273 273 273
285 285 284 284 286 287 287 287 287 288 289 290 290 291 291 291 290 290 290 289 289 288 288 287 287 287 286 285 284 283 282 280 279 278 277 275 274 273 272 272 271 271 271
290 290 290 291 290 290 290 290 290 290 291 292 292 292 291 291 291 291 290 290 289 289 288 288 287 287 286 285 284 283 282 281 279 278 276 275 274 272 271 270 270 269 268
292 292 293 294 293 292 292 292 292 292 293 293 293 293 293 292 292 292 292 291 290 290 289 288 287 287 286 285 283 282 281 280 279 278 276 275 273 271 270 268 267 267 266
292 294 294 294 293 292 292 293 293 293 294 294 294 294 294 294 294 294 293 293 292 291 290 289 288 287 286 284 283 282 281 280 278 277 275 274 272 270 268 266 265 264 263
293 293 294 295 295 295 296 296 296 297 297 297 296 296 296 296 295 295 295 294 293 292 292 291 290 288 287 286 284 283 281 279 278 276 275 273 271 269 266 263 263 261 260
294 294 295 296 297 298 298 299 299 299 298 298 297 297 297 296 296 295 295 294 294 293 292 292 291 290 289 287 286 284 283 281 279 277 275 273 270 267 264 261 260 258 256
297 297 297 298 299 300 300 300 300 300 300 299 299 299 298 298 298 297 296 296 295 295 294 293 293 292 291 289 288 287 285 283 280 278 276 273 269 266 264 261 259 257 254
299 300 300 301 302 302 302 302 302 302 301 301 301 301 301 300 300 299 299 299 298 297 297 296 296 295 294 292 291 290 288 286 284 281 277 273 270 267 264 261 259 257 254
301 302 303 304 304 304 304 304 304 304 304 303 303 303 303 303 302 302 301 301 301 301 301 301 300 300 299 297 295 293 292 291 288 285 281 277 274 271 267 261 259 256 253
304 305 306 306 306 306 306 306 306 306 306 306 305 306 306 306 305 304 303 303 304 304 304 305 306 305 305 304 302 298 297 297 294 290 286 281 276 272 268 262 259 255 251
306 306 306 306 306 306 306 306 307 307 307 307 308 308 309 309 309 308 307 307 307 308 308 309 310 310 310 310 309 306 304 302 300 296 293 288 283 277 270 265 260 255 250
306 306 306 307 307 308 308 308 308 308 308 309 309 310 311 312 313 313 313 312 313 313 313 314 315 315 315 313 313 310 307 305 304 303 299 295 287 278 271 268 261 254 250
307 307 307 307 308 309 309 309 309 308 309 310 311 312 313 314 314 315 316 318 318 318 318 319 320 322 322 318 316 315 312 308 306 306 303 299 291 280 273 269 260 254 248
307 307 307 308 308 309 309 309 309 309 310 312 313 314 315 317 317 318 319 321 323 323 323 324 325 326 326 327 326 324 321 318 314 311 309 303 296 289 280 270 259 251 249
307 308 308 308 309 309 309 309 309 310 310 312 314 316 318 320 321 321 323 324 326 326 327 328 329 329 331 331 331 329 328 327 325 318 314 309 302 293 284 272 261 254 252
Height
5854 5856 5857 5858 5859 5860 5861 5862 5863 5864 5864 5864 5864 5864 5864 5864 5864 5863 5863 5862 5861 5860 5859 5858 5857 5856 5855 5854 5853 5852 5851 5850 5849 5848 5847 5846 5846 5844 5843 5842 5841 5840 5840
5852 5853 5854 5855 5855 5856 5857 5857 5858 5859 5859 5859 5859 5859 5858 5858 5857 5857 5856 5855 5855 5854 5853 5852 5851 5849 5848 5847 5846 5845 5844 5843 5842 5841 5839 5839 5838 5837 5836 5835 5834 5833 5833
5848 5849 5850 5850 5851 5851 5852 5852 5853 5853 5853 5852 5852 5852 5851 5851 5850 5850 5849 5848 5847 5846 5846 5845 5843 5842 5841 5839 5838 5837 5836 5835 5834 5833 5832 5830 5830 5829 5828 5827 5826 5825 5824
5844 5843 5844 5845 5846 5846 5846 5846 5846 5846 5845 5845 5845 5844 5843 5843 5842 5842 5841 5840 5839 5838 5837 5836 5835 5834 5832 5831 5830 5828 5827 5825 5824 5824 5823 5822 5821 5819 5819 5818 5817 5816 5815
5839 5838 5839 5840 5840 5840 5840 5839 5839 5839 5838 5837 5837 5836 5835 5834 5833 5833 5832 5831 5830 5829 5828 5827 5826 5824 5823 5821 5820 5819 5817 5816 5815 5814 5813 5812 5811 5809 5809 5808 5807 5806 5805
5833 5833 5832 5832 5833 5833 5832 5832 5831 5830 5829 5827 5828 5827 5826 5825 5824 5823 5822 5821 5820 5819 5818 5817 5815 5814 5812 5811 5809 5807 5806 5805 5804 5802 5802 5801 5800 5798 5797 5796 5795 5795 5795
5828 5828 5827 5826 5826 5824 5824 5823 5822 5821 5820 5819 5818 5817 5816 5815 5814 5813 5811 5810 5809 5808 5806 5805 5803 5802 5800 5799 5797 5795 5794 5792 5791 5789 5789 5788 5787 5785 5784 5783 5782 5782 5782
5822 5821 5820 5819 5818 5816 5815 5814 5813 5812 5810 5809 5808 5807 5806 5804 5803 5801 5800 5798 5796 5795 5793 5791 5790 5788 5786 5784 5783 5782 5780 5779 5777 5775 5774 5774 5772 5771 5769 5769 5768 5768 5769
5813 5812 5811 5810 5809 5808 5807 5805 5803 5801 5800 5798 5798 5796 5794 5792 5791 5789 5787 5785 5783 5781 5779 5777 5775 5773 5771 5768 5767 5766 5765 5763 5761 5759 5758 5758 5757 5756 5754 5753 5753 5753 5754
5804 5803 5801 5800 5799 5798 5797 5795 5793 5792 5790 5788 5787 5784 5782 5780 5778 5776 5774 5771 5769 5767 5765 5762 5759 5756 5754 5752 5750 5749 5747 5746 5743 5742 5741 5741 5740 5740 5738 5737 5736 5736 5737
5795 5794 5792 5791 5789 5787 5786 5784 5783 5782 5780 5778 5775 5773 5770 5767 5765 5762 5760 5757 5754 5752 5749 5746 5742 5739 5737 5734 5731 5729 5727 5725 5723 5722 5721 5721 5721 5721 5721 5720 5719 5718 5719
5786 5784 5782 5781 5779 5778 5776 5774 5772 5770 5768 5766 5763 5761 5757 5754 5751 5748 5745 5741 5738 5734 5731 5727 5724 5720 5717 5713 5710 5707 5704 5701 5700 5700 5699 5699 5699 5700 5699 5699 5699 5700 5701
5777 5775 5773 5771 5769 5767 5765 5764 5761 5759 5756 5753 5750 5747 5743 5739 5735 5732 5728 5723 5719 5715 5711 5707 5703 5699 5694 5691 5687 5683 5680 5677 5675 5674 5674 5675 5675 5675 5675 5676 5677 5678 5679
5769 5766 5764 5762 5760 5757 5755 5753 5750 5747 5743 5739 5736 5732 5727 5722 5718 5713 5708 5703 5698 5694 5689 5685 5680 5675 5670 5666 5663 5659 5655 5652 5649 5648 5648 5648 5648 5649 5650 5651 5653 5655 5656
5759 5757 5754 5752 5750 5747 5744 5741 5737 5733 5729 5724 5720 5715 5710 5705 5699 5693 5686 5681 5675 5670 5665 5661 5656 5651 5646 5641 5637 5634 5631 5627 5624 5623 5621 5621 5622 5622 5624 5626 5628 5630 5632
5749 5747 5744 5741 5738 5734 5731 5727 5722 5718 5713 5707 5702 5697 5691 5685 5679 5672 5665 5659 5652 5645 5640 5636 5631 5626 5621 5617 5613 5610 5606 5603 5600 5598 5596 5596 5596 5597 5599 5601 5603 5605 5609
5739 5736 5732 5729 5725 5721 5716 5712 5707 5702 5695 5689 5683 5677 5671 5665 5658 5651 5644 5638 5632 5624 5619 5614 5608 5604 5599 5594 5590 5587 5584 5581 5578 5575 5574 5573 5573 5574 5575 5578 5580 5583 5587
5728 5724 5720 5716 5711 5706 5701 5696 5690 5684 5678 5671 5664 5656 5650 5644 5637 5630 5624 5618 5612 5605 5599 5594 5589 5585 5580 5575 5571 5567 5564 5561 5559 5557 5555 5554 5554 5554 5555 5558 5561 5563 5567
5716 5712 5707 5702 5697 5691 5685 5679 5673 5666 5659 5652 5645 5638 5631 5625 5618 5611 5604 5599 5594 5589 5583 5578 5573 5568 5564 5560 5556 5552 5548 5545 5543 5540 5539 5538 5537 5538 5539 5541 5543 5546 5550
5703 5698 5693 5687 5682 5676 5669 5663 5656 5649 5642 5635 5628 5622 5615 5609 5602 5596 5589 5583 5579 5574 5570 5565 5561 5556 5551 5547 5543 5540 5536 5533 5530 5528 5526 5525 5524 5524 5525 5527 5529 5532 5535
5689 5684 5678 5672 5666 5659 5653 5646 5640 5633 5626 5620 5614 5607 5601 5595 5589 5583 5578 5573 5568 5564 5560 5556 5551 5547 5542 5538 5534 5531 5527 5524 5521 5518 5516 5515 5514 5514 5514 5515 5517 5520 5523
5675 5669 5663 5657 5651 5645 5638 5632 5626 5620 5614 5608 5602 5596 5590 5584 5578 5573 5568 5564 5560 5556 5552 5548 5544 5540 5535 5531 5527 5524 5520 5517 5515 5512 5510 5508 5507 5506 5506 5507 5508 5511 5514
5661 5655 5649 5643 5637 5631 5625 5619 5614 5608 5603 5597 5592 5587 5581 5576 5570 5566 5561 5557 5553 5550 5546 5542 5538 5534 5530 5525 5521 5518 5515 5512 5510 5507 5505 5503 5501 5500 5501 5501 5502 5504 5507
5647 5642 5636 5630 5625 5619 5614 5609 5604 5599 5594 5589 5584 5579 5574 5569 5564 5560 5556 5552 5549 5545 5541 5537 5533 5529 5525 5521 5517 5514 5510 5508 5505 5503 5501 5499 5498 5497 5497 5497 5498 5500 5502
5635 5630 5624 5619 5614 5609 5604 5599 5595 5590 5586 5581 5577 5572 5568 5564 5560 5556 5552 5548 5545 5541 5537 5533 5530 5526 5522 5518 5514 5511 5508 5505 5502 5500 5499 5497 5496 5495 5494 5494 5495 5496 5498
5624 5619 5614 5610 5605 5600 5595 5591 5587 5583 5579 5575 5571 5567 5563 5559 5556 5552 5548 5545 5541 5538 5534 5530 5527 5523 5519 5515 5512 5509 5506 5503 5500 5498 5496 5495 5494 5493 5492 5492 5493 5493 5495